Location: Unnamed
(48.8836°N, 1.0859°W)
Time: 11:56:02
(UTC+02:00)

ISS - Visible Passes

Search period start: 28 September 2021 00:00
Search period end: 08 October 2021 00:00
Orbit: 417 x 422 km, 51.6° (Epoch: 28 September)

Date Brightness Start Highest point End Pass type
(mag) Time Alt. Az. Time Alt. Az. Time Alt. Az.
28 Sep -3.5 21:04:08 10° WNW 21:07:28 59° N 21:09:08 26° E visible
28 Sep -1.0 22:41:01 10° WNW 22:42:06 18° W 22:42:06 18° W visible
29 Sep -3.3 20:16:40 10° WNW 20:19:58 53° N 20:23:18 10° E visible
29 Sep -3.3 21:53:32 10° WNW 21:56:28 58° WSW 21:56:28 58° WSW visible
30 Sep -3.8 21:06:01 10° WNW 21:09:24 89° NNE 21:10:48 33° ESE visible
30 Sep -0.6 22:43:15 10° W 22:43:46 13° W 22:43:46 13° W visible
01 Oct -3.7 20:18:26 10° WNW 20:21:48 71° NNE 20:25:07 10° E visible
01 Oct -2.3 21:55:24 10° W 21:58:04 31° SW 21:58:04 31° SW visible
02 Oct -3.0 21:07:38 10° WNW 21:10:53 47° SSW 21:12:22 26° SSE visible
03 Oct -3.5 20:19:51 10° WNW 20:23:12 68° SSW 20:26:33 10° ESE visible
03 Oct -1.2 21:57:32 10° W 21:59:30 15° SW 21:59:38 15° SW visible
04 Oct -1.6 21:09:12 10° W 21:11:52 22° SW 21:13:58 13° S visible
05 Oct -2.2 20:21:03 10° W 20:24:07 32° SW 20:27:09 10° SSE visible
07 Oct -0.9 20:22:31 10° W 20:24:32 15° SW 20:26:32 10° S visible
